KBHK

Details ICAO KBHK
Name Baker Muni
Region United States
Timezone America/Denver (UTC-6.0)
Plans Departing 0
Arriving 1
Stats Elevation 2,973 ft / 906 m (AMSL)
Location 46.347636° -104.259447°
Runways 1
Magnetic Variation 8.272° E
Sunrise 2018-05-24 11:15:47 UTC / 2018-05-24 05:15:47 Local
Sunset 2018-05-25 02:34:53 UTC / 2018-05-24 20:34:53 Local
Advertisement - Login to hide

Runways

ID Width Length Bearing (true) Bearing (mag) Surface Threshold Offset Overrun Length
13 75 ft / 23 m 4,892 ft / 1,491 m 137.81° 129.54° Asphalt 0 ft / 0 m 0 ft / 0 m
31 75 ft / 23 m 4,892 ft / 1,491 m 317.82° 309.55° Asphalt 0 ft / 0 m 0 ft / 0 m

Map

Weather


0- 5 10 15 20 25 30 35+ Temperature / ° C

Clouds and Precipitation
Forecast for 2018-05-24 12:00 UTC. Updated an hour ago

Ground ~20,000 ft ~40,000 ft Winds

METAR

KBHK 240951Z AUTO 14004KT 10SM CLR 11/11 A2984 RMK AO2 SLP090 T01110111

TAF

Not found

Frequencies

Recorded 135.47 MHz ASOS
Unicom 122.90 MHz CTAF
Warning: Do not use this data for real-world aviation or navigation. No guarantee of current accuracy is given.